Main page
METAR-TAF:

METAR-TAF

Airports :

Masjed Soleyman, Iran

latitude: 31-59N, longitude: 049-16E, elevation: 372 m

Current weather observation

The report was made 24 minutes ago, at 20:00 UTC
Wind 4 kt from the South/Southeast
Temperature 12°C
Humidity 94%
Pressure 1022 hPa
Visibility: 8000 m

METAR: OIAI 182000Z 15004KT 8000 NSC 12/11 Q1022

Time: 23:54 (20:24 UTC)


TAF: missing

Weather observations and forecasts of more than 4000 airports (METAR and TAF reports).

The available stations are represented by yellow and red dots on the map.

Hover mouse over dot to see the name of the station.

Then click to see weather observations and forecasts.

To change the map : click on the green buttons with a black cross to zoom in, on the green button with a dash to zoom out, or on the green arrows for adjacent maps.


METAR-TAF: